Weather History for Monett, MO

Change the Weather History Date:

Saturday, November 3, 2012

  Actual Average (KJLN) Record (KJLN)
Temperature  
Mean Temperature 53 °F 54 °F  
Max Temperature 64 °F 65 °F 83 °F (1978)
Min Temperature 41 °F 43 °F 13 °F (1991)
Degree Days  
Heating Degree Days 12 12  
Month to date heating degree days 34  
Since 1 July heating degree days 286  
Cooling Degree Days 0 1  
Month to date cooling degree days 3  
Year to date cooling degree days 1694  
Growing Degree Days 3 (Base 50)    
Moisture  
Dew Point 39 °F    
Average Humidity 64    
Maximum Humidity 81    
Minimum Humidity 44    
Precipitation  
Precipitation 0.00 in 0.13 in 2.05 in (1974)
Month to date precipitation 0.39  
Year to date precipitation 40.34  
Sea Level Pressure  
Sea Level Pressure 30.06 in    
Wind  
Wind Speed 9 mph (NW)    
Max Wind Speed 16 mph    
Max Gust Speed 18 mph    
Visibility 10 miles    
Events      
T = Trace of Precipitation, MM = Missing Value Source: NWS Daily Summary

Daily Weather History Graph

Daily Weather History Graph

Search for Another Location

Airport:

Trip Planner

Search our weather history database for the weather conditions in past years. The results will help you decide how hot, cold, wet, or windy it might be!

Date:

Astronomy

Nov. 03, 2012 Rise Set
Actual Time 7:42 AM CDT 6:16 PM CDT
Civil Twilight 7:15 AM CDT 6:43 PM CDT
Nautical Twilight 6:44 AM CDT 7:13 PM CDT
Astronomical Twilight 6:14 AM CDT 7:44 PM CDT
Moon 10:00 PM CDT (11/3) 11:44 AM CDT (11/3)
Length of Visible Light 11h 27m
Length of Day
10h 33m
Waning Gibbous, 80% of the Moon is Illuminated
Nov 3
Waning Gibbous
Nov 6
Last Quarter
Nov 13
New
Nov 20
First Quarter
Nov 28
Full

Hourly Weather History & Observations

Time (CDT) Temp. Windchill Dew Point Humidity Pressure Visibility Wind Dir Wind Speed Gust Speed Precip Events Conditions
12:15 AM 60.8 °F - 51.8 °F 72% 29.90 in 10.0 mi SSE 9.2 mph - N/A   Clear
12:35 AM 60.8 °F - 51.8 °F 72% 29.90 in 10.0 mi SSE 9.2 mph - N/A   Clear
12:55 AM 64.4 °F - 51.8 °F 64% 29.90 in 10.0 mi South 10.4 mph - N/A   Clear
1:15 AM 64.4 °F - 51.8 °F 64% 29.90 in 10.0 mi South 11.5 mph - N/A   Clear
1:35 AM 64.4 °F - 51.8 °F 64% 29.90 in 10.0 mi South 12.7 mph - N/A   Clear
1:55 AM 62.6 °F - 51.8 °F 68% 29.90 in 10.0 mi South 12.7 mph - N/A   Clear
2:15 AM 62.6 °F - 51.8 °F 68% 29.91 in 10.0 mi SSW 10.4 mph - N/A   Clear
2:35 AM 62.6 °F - 51.8 °F 68% 29.91 in 10.0 mi SSW 10.4 mph - N/A   Clear
2:55 AM 62.6 °F - 51.8 °F 68% 29.91 in 10.0 mi SSW 11.5 mph 17.3 mph N/A   Clear
3:15 AM 62.6 °F - 51.8 °F 68% 29.91 in 10.0 mi SSW 13.8 mph 18.4 mph N/A   Clear
3:35 AM 64.4 °F - 51.8 °F 64% 29.90 in 10.0 mi SSW 12.7 mph - N/A   Clear
3:55 AM 64.4 °F - 51.8 °F 64% 29.91 in 10.0 mi SW 11.5 mph - N/A   Clear
4:15 AM 62.6 °F - 51.8 °F 68% 29.91 in 10.0 mi SW 11.5 mph - N/A   Clear
4:35 AM 62.6 °F - 51.8 °F 68% 29.92 in 10.0 mi SW 9.2 mph - N/A   Clear
4:55 AM 60.8 °F - 51.8 °F 72% 29.93 in 10.0 mi WSW 10.4 mph - N/A   Clear
5:15 AM 59.0 °F - 50.0 °F 72% 29.95 in 10.0 mi West 9.2 mph - N/A   Clear
5:35 AM 50.0 °F - 41.0 °F 71% 29.97 in 10.0 mi NW 16.1 mph - N/A   Clear
5:55 AM 46.4 °F 42.4 °F 37.4 °F 71% 29.99 in 10.0 mi NW 8.1 mph 12.7 mph N/A   Clear
6:15 AM 44.6 °F 40.2 °F 37.4 °F 76% 30.00 in 10.0 mi WNW 8.1 mph - N/A   Clear
6:35 AM 44.6 °F 40.2 °F 35.6 °F 71% 30.01 in 10.0 mi NW 8.1 mph - N/A   Clear
6:55 AM 42.8 °F 39.3 °F 35.6 °F 76% 30.02 in 10.0 mi WNW 5.8 mph - N/A   Clear
7:15 AM 42.8 °F 38.6 °F 35.6 °F 76% 30.03 in 10.0 mi NW 6.9 mph - N/A   Clear
7:35 AM 42.8 °F 38.6 °F 35.6 °F 76% 30.03 in 10.0 mi NW 6.9 mph - N/A   Clear
7:55 AM 42.8 °F 38.6 °F 35.6 °F 76% 30.05 in 10.0 mi NW 6.9 mph - N/A   Clear
8:15 AM 42.8 °F 39.3 °F 35.6 °F 76% 30.05 in 10.0 mi NW 5.8 mph - N/A   Clear
8:35 AM 42.8 °F 38.6 °F 35.6 °F 76% 30.07 in 10.0 mi NW 6.9 mph - N/A   Clear
8:55 AM 42.8 °F 37.5 °F 35.6 °F 76% 30.08 in 10.0 mi NW 9.2 mph - N/A   Clear
9:15 AM 44.6 °F 38.8 °F 35.6 °F 71% 30.08 in 10.0 mi NW 11.5 mph - N/A   Clear
9:35 AM 44.6 °F 38.8 °F 35.6 °F 71% 30.08 in 10.0 mi NW 11.5 mph - N/A   Clear
9:55 AM 44.6 °F 39.7 °F 35.6 °F 71% 30.09 in 10.0 mi WNW 9.2 mph - N/A   Clear
10:15 AM 46.4 °F 41.9 °F 35.6 °F 66% 30.10 in 10.0 mi NW 9.2 mph - N/A   Clear
10:35 AM 48.2 °F - 35.6 °F 62% 30.10 in 10.0 mi NW 9.2 mph - N/A   Clear
10:55 AM 50.0 °F - 35.6 °F 58% 30.11 in 10.0 mi NW 9.2 mph - N/A   Clear
11:15 AM 50.0 °F - 35.6 °F 58% 30.12 in 10.0 mi North 11.5 mph - N/A   Clear
11:35 AM 50.0 °F - 35.6 °F 58% 30.12 in 10.0 mi NW 10.4 mph - N/A   Clear
11:55 AM 51.8 °F - 35.6 °F 54% 30.12 in 10.0 mi NNW 8.1 mph - N/A   Clear
12:15 PM 51.8 °F - 35.6 °F 54% 30.12 in 10.0 mi NNW 11.5 mph 16.1 mph N/A   Clear
12:35 PM 51.8 °F - 35.6 °F 54% 30.11 in 10.0 mi NW 8.1 mph 17.3 mph N/A   Clear
12:55 PM 53.6 °F - 35.6 °F 51% 30.11 in 10.0 mi NNW 11.5 mph - N/A   Clear
1:15 PM 53.6 °F - 37.4 °F 54% 30.10 in 10.0 mi NNW 9.2 mph - N/A   Clear
1:35 PM 55.4 °F - 37.4 °F 51% 30.10 in 10.0 mi NW 11.5 mph - N/A   Clear
1:55 PM 55.4 °F - 35.6 °F 47% 30.10 in 10.0 mi NW 8.1 mph - N/A   Clear
2:15 PM 55.4 °F - 37.4 °F 51% 30.10 in 10.0 mi NW 10.4 mph - N/A   Clear
2:35 PM 55.4 °F - 37.4 °F 51% 30.10 in 10.0 mi NNW 9.2 mph - N/A   Clear
2:55 PM 55.4 °F - 37.4 °F 51% 30.10 in 10.0 mi NNW 11.5 mph - N/A   Clear
3:15 PM 57.2 °F - 37.4 °F 48% 30.10 in 10.0 mi NW 9.2 mph - N/A   Clear
3:35 PM 57.2 °F - 37.4 °F 48% 30.10 in 10.0 mi NNW 10.4 mph - N/A   Clear
3:55 PM 57.2 °F - 35.6 °F 44% 30.11 in 10.0 mi NW 10.4 mph - N/A   Clear
4:15 PM 57.2 °F - 35.6 °F 44% 30.11 in 10.0 mi NNW 12.7 mph 17.3 mph N/A   Clear
4:35 PM 57.2 °F - 35.6 °F 44% 30.11 in 10.0 mi NNW 11.5 mph 16.1 mph N/A   Clear
4:55 PM 55.4 °F - 35.6 °F 47% 30.11 in 10.0 mi North 9.2 mph - N/A   Clear
5:15 PM 55.4 °F - 35.6 °F 47% 30.11 in 10.0 mi NNW 10.4 mph - N/A   Clear
5:35 PM 53.6 °F - 35.6 °F 51% 30.12 in 10.0 mi NNW 8.1 mph - N/A   Clear
5:55 PM 53.6 °F - 35.6 °F 51% 30.12 in 10.0 mi North 4.6 mph - N/A   Clear
6:15 PM 51.8 °F - 35.6 °F 54% 30.12 in 10.0 mi North 6.9 mph - N/A   Clear
6:35 PM 50.0 °F - 35.6 °F 58% 30.12 in 10.0 mi North 5.8 mph - N/A   Clear
6:55 PM 50.0 °F - 35.6 °F 58% 30.13 in 10.0 mi North 4.6 mph - N/A   Clear
7:15 PM 48.2 °F - 35.6 °F 62% 30.13 in 10.0 mi North 3.5 mph - N/A   Clear
7:35 PM 46.4 °F 45.2 °F 35.6 °F 66% 30.14 in 10.0 mi North 3.5 mph - N/A   Clear
7:55 PM 46.4 °F 43.5 °F 35.6 °F 66% 30.14 in 10.0 mi North 5.8 mph - N/A   Clear
8:15 PM 44.6 °F 40.7 °F 35.6 °F 71% 30.14 in 10.0 mi North 6.9 mph - N/A   Clear
8:35 PM 44.6 °F 42.2 °F 35.6 °F 71% 30.15 in 10.0 mi North 4.6 mph - N/A   Clear
8:55 PM 44.6 °F 41.4 °F 35.6 °F 71% 30.15 in 10.0 mi North 5.8 mph - N/A   Clear
9:15 PM 44.6 °F 42.2 °F 35.6 °F 71% 30.15 in 10.0 mi NNE 4.6 mph - N/A   Clear
9:35 PM 42.8 °F - 35.6 °F 76% 30.16 in 10.0 mi Calm Calm - N/A   Clear
9:55 PM 42.8 °F - 35.6 °F 76% 30.16 in 10.0 mi Calm Calm - N/A   Clear
10:15 PM 42.8 °F - 35.6 °F 76% 30.17 in 10.0 mi Calm Calm - N/A   Clear
10:35 PM 42.8 °F - 35.6 °F 76% 30.17 in 10.0 mi Calm Calm - N/A   Clear
10:55 PM 42.8 °F - 35.6 °F 76% 30.17 in 10.0 mi Calm Calm - N/A   Clear
11:15 PM 42.8 °F - 35.6 °F 76% 30.18 in 10.0 mi Calm Calm - N/A   Clear
11:35 PM 42.8 °F - 35.6 °F 76% 30.17 in 10.0 mi Calm Calm - N/A   Clear
11:55 PM 41.0 °F - 35.6 °F 81% 30.17 in 10.0 mi Calm Calm - N/A   Clear